Tartu current weather conditions

sailwx.info

Wind from 260 at 12 knots

Air temperature 1.0° C
Visibility: greater than 5.4 NM
Dewpoint -1.0° C
Present weather: Light snow showers.

Last reported at 2014-Dec-21 09:50 UTC.
Time now 2014-Dec-21 11:25 UTC

Location: N 58°18' E 026°41'.
View on Google Maps.

See reports from other nearby stations

  
Tides and Currents Weather Stations Pressure Air Temp Water Temp Dewpoint Dewpoint Depression Visibility Wind Speed Wind Dir Waves Ship Positions
date/time (UTC)wind fromknots sea level pressurealtimeterstation pressurevisibilityair tempwater tempwave heightnotes
2014-Dec-21 09:50 260 12 5.4 1.0 Light snow showers.
2014-Dec-21 08:50 250 14 5.4 1.0 Light snow.
2014-Dec-21 07:50 260 12 5.4 1.0
2014-Dec-21 06:50 260 11 5.4 1.0
2014-Dec-21 05:50 250 13 5.4 1.0
2014-Dec-21 04:50 240 11 5.4 1.0
2014-Dec-21 03:50 260 7 5.4 1.0
2014-Dec-21 02:50 270 11 5.4 1.0
2014-Dec-21 01:50 260 10 5.4 1.0
2014-Dec-21 00:50 250 10 5.4 2.0
2014-Dec-20 23:50 250 11 5.4 2.0
2014-Dec-20 22:50 240 7 5.4 2.0
2014-Dec-20 21:50 250 10 5.4 2.0
2014-Dec-20 20:50 240 11 5.4 1.0
2014-Dec-20 19:50 250 9 5.4 1.0
2014-Dec-20 18:50 240 10 5.4 1.0
2014-Dec-20 17:50 230 12 5.4 1.0
2014-Dec-20 16:50 230 12 2.7 2.0 Light snow showers.
2014-Dec-20 15:50 230 13 5.4 2.0 Light rain snow.
2014-Dec-20 14:50 220 8 5.4 2.0
2014-Dec-20 13:50 260 8 4.9 1.0 Light snow showers.
2014-Dec-20 12:50 240 13 0.8 1.0 Snow showers.
2014-Dec-20 11:50 230 11 5.4 2.0
2014-Dec-20 10:50 230 13 5.4 2.0
2014-Dec-20 09:50 230 14 5.4 3.0 Light rain showers.
2014-Dec-20 08:50 230 13 5.4 2.0
2014-Dec-20 07:50 230 11 5.4 2.0
2014-Dec-20 06:50 220 10 5.4 2.0
2014-Dec-20 05:50 230 11 5.4 2.0
2014-Dec-20 04:50 240 15 5.4 2.0 Drizzle.
2014-Dec-20 03:50 240 14 5.4 2.0
2014-Dec-20 02:50 250 17 2.5 2.0 Light rain.
2014-Dec-20 01:50 220 13 5.4 4.0
2014-Dec-20 00:50 220 11 5.4 3.0
2014-Dec-19 23:50 230 10 5.4 3.0
2014-Dec-19 22:50 230 10 5.4 3.0
2014-Dec-19 21:50 250 10 3.2 4.0 Mist.
2014-Dec-19 20:50 220 11 5.4 4.0 Light drizzle.
2014-Dec-19 19:50 230 11 5.4 4.0
2014-Dec-19 18:50 240 12 5.4 5.0 Light rain.
2014-Dec-19 17:50 240 14 5.4 5.0 Light drizzle.
2014-Dec-19 16:50 240 14 5.4 5.0
2014-Dec-19 15:50 240 13 5.4 5.0
2014-Dec-19 14:50 260 19 gusting 29 5.4 6.0
2014-Dec-19 13:50 260 16 5.4 6.0
2014-Dec-19 12:50 220 10 2.1 5.0 Light. Drizzle. Mist.
2014-Dec-19 11:50 180 6 3.2 3.0